Weather History for KRMG - October, 2012

Change the Weather History Date:

Friday, October 5, 2012

  Actual Average Record
Temperature  
Mean Temperature 66 °F 65 °F  
Max Temperature 82 °F 77 °F - ()
Min Temperature 52 °F 53 °F - ()
Degree Days  
Heating Degree Days 0 3  
Month to date heating degree days 11  
Since 1 July heating degree days 25  
Cooling Degree Days 2 3  
Month to date cooling degree days 15  
Year to date cooling degree days 1605  
Growing Degree Days 16 (Base 50)    
Moisture  
Dew Point 57 °F    
Average Humidity 88    
Maximum Humidity 100    
Minimum Humidity 35    
Precipitation  
Precipitation 0.00 in 0.14 in - ()
Month to date precipitation 0.72  
Year to date precipitation 39.55  
Sea Level Pressure  
Sea Level Pressure 30.15 in    
Wind  
Wind Speed 0 mph (NNE)    
Max Wind Speed 5 mph    
Max Gust Speed -    
Visibility 4 miles    
Events Fog    
T = Trace of Precipitation, MM = Missing Value Source: NWS Daily Summary

Daily Weather History Graph

Daily Weather History Graph

Search for Another Location

Airport or City:

Trip Planner

Search our weather history database for the weather conditions in past years. The results will help you decide how hot, cold, wet, or windy it might be!

Date:

Astronomy

Oct. 05, 2012 Rise Set
Actual Time 7:38 AM EDT 7:18 PM EDT
Civil Twilight 7:13 AM EDT 7:43 PM EDT
Nautical Twilight 6:44 AM EDT 8:12 PM EDT
Astronomical Twilight 6:15 AM EDT 8:41 PM EDT
Moon 10:53 PM EDT (10/5) 12:33 PM EDT (10/5)
Length of Visible Light 12h 30m
Length of Day
11h 40m
Waning Gibbous, 74% of the Moon is Illuminated
Oct 5
Waning Gibbous
Oct 8
Last Quarter
Oct 15
New
Oct 21
First Quarter
Oct 29
Full

Hourly Weather History & Observations

Time (EDT) Temp. Heat Index Dew Point Humidity Pressure Visibility Wind Dir Wind Speed Gust Speed Precip Events Conditions
12:53 AM 57.9 °F - 57.9 °F 100% 30.21 in 5.0 mi Calm Calm - N/A   Clear
1:53 AM 55.9 °F - 55.9 °F 100% 30.20 in 6.0 mi Calm Calm - N/A   Clear
2:53 AM 57.0 °F - 57.0 °F 100% 30.19 in 5.0 mi NE 3.5 mph - N/A   Clear
3:53 AM 55.4 °F - 55.4 °F 100% 30.20 in 4.0 mi Calm Calm - N/A   Clear
4:15 AM 53.6 °F - 53.6 °F 100% 30.20 in 1.5 mi Calm Calm - N/A   Partly Cloudy
4:26 AM 55.4 °F - 53.6 °F 94% 30.20 in 3.0 mi Calm Calm - N/A   Scattered Clouds
4:33 AM 55.4 °F - 55.4 °F 100% 30.20 in 2.0 mi NNE 3.5 mph - N/A   Mostly Cloudy
4:35 AM 55.4 °F - 55.4 °F 100% 30.20 in 0.8 mi NNE 3.5 mph - N/A   Mostly Cloudy
4:38 AM 55.4 °F - 55.4 °F 100% 30.20 in 0.2 mi Calm Calm - N/A Fog Fog
4:53 AM 55.0 °F - 55.0 °F 100% 30.18 in 0.2 mi Calm Calm - N/A Fog Fog
5:25 AM 53.6 °F - 53.6 °F 100% 30.20 in 0.5 mi Calm Calm - N/A Fog Fog
5:35 AM 53.6 °F - 53.6 °F 100% 30.20 in 0.2 mi Calm Calm - N/A Fog Fog
5:53 AM 54.0 °F - 54.0 °F 100% 30.19 in 0.2 mi Calm Calm - N/A Fog Fog
6:53 AM 54.0 °F - 54.0 °F 100% 30.19 in 0.2 mi Calm Calm - N/A Fog Fog
7:18 AM 53.6 °F - 53.6 °F 100% 30.21 in 0.5 mi Calm Calm - N/A Fog Fog
7:40 AM 51.8 °F - 51.8 °F 100% 30.21 in 1.0 mi Calm Calm - N/A   Mist
7:47 AM 51.8 °F - 51.8 °F 100% 30.21 in 0.2 mi Calm Calm - N/A Fog Fog
7:48 AM 52.0 °F - 52.0 °F 100% 30.20 in 0.2 mi Calm Calm - N/A Fog Fog
8:13 AM 53.6 °F - 53.6 °F 100% 30.22 in 0.5 mi Calm Calm - N/A Fog Fog
8:53 AM 55.0 °F - 55.0 °F 100% 30.20 in 0.8 mi Calm Calm - N/A   Overcast
9:03 AM 55.4 °F - 55.4 °F 100% 30.22 in 0.5 mi Calm Calm - N/A Fog Fog
9:11 AM 55.4 °F - 55.4 °F 100% 30.22 in 0.2 mi Calm Calm - N/A Fog Fog
9:18 AM 55.4 °F - 55.4 °F 100% 30.22 in 0.5 mi Calm Calm - N/A Fog Fog
9:53 AM 59.0 °F - 59.0 °F 100% 30.20 in 0.8 mi Calm Calm - N/A   Overcast
10:02 AM 59.0 °F - 59.0 °F 100% 30.22 in 1.2 mi Calm Calm - N/A   Overcast
10:16 AM 60.8 °F - 60.8 °F 100% 30.21 in 3.0 mi Calm Calm - N/A   Overcast
10:32 AM 62.6 °F - 60.8 °F 94% 30.21 in 6.0 mi Calm Calm - N/A   Scattered Clouds
10:53 AM 66.2 °F - 62.6 °F 88% 30.20 in 9.0 mi Calm Calm - N/A   Clear
11:53 AM 73.4 °F - 60.8 °F 65% 30.18 in 10.0 mi Calm Calm - N/A   Clear
12:53 PM 78.1 °F - 59.0 °F 52% 30.14 in 10.0 mi Calm Calm - N/A   Clear
1:53 PM 80.1 °F 80.4 °F 57.0 °F 45% 30.11 in 10.0 mi Variable 3.5 mph - N/A   Clear
2:53 PM 81.0 °F 80.8 °F 55.9 °F 42% 30.08 in 10.0 mi Calm Calm - N/A   Clear
3:53 PM 81.0 °F 80.7 °F 55.0 °F 41% 30.05 in 10.0 mi Calm Calm - N/A   Clear
4:53 PM 81.0 °F 80.8 °F 55.9 °F 42% 30.03 in 10.0 mi Calm Calm - N/A   Clear
5:53 PM 80.1 °F 80.4 °F 57.0 °F 45% 30.01 in 10.0 mi WSW 4.6 mph - N/A   Clear
6:53 PM - - - N/A% 30.02 in - North - - N/A   Unknown
7:53 PM 69.1 °F - 62.1 °F 78% 30.01 in 10.0 mi Calm Calm - N/A   Unknown
8:53 PM 64.9 °F - 61.0 °F 87% 30.02 in 10.0 mi Calm Calm - N/A   Clear
9:53 PM 62.1 °F - 61.0 °F 96% 30.01 in 8.0 mi Calm Calm - N/A   Clear
10:53 PM 61.0 °F - 60.1 °F 97% 30.04 in 7.0 mi Calm Calm - N/A   Clear
11:53 PM 60.1 °F - 60.1 °F 100% 30.04 in 5.0 mi Calm Calm - N/A   Scattered Clouds